Location: Lourdes
(43.1000°N, 0.0500°W)
Time: 14:32:43
(UTC+00:00)

Okean-O - Visible Passes

Search period start: 13 April 2021 00:00
Search period end: 23 April 2021 00:00
Orbit: 639 x 640 km, 98.2° (Epoch: 12 April)

Date Brightness Start Highest point End Pass type
(mag) Time Alt. Az. Time Alt. Az. Time Alt. Az.
13 Apr 5.2 19:52:04 10° SW 19:55:26 21° W 19:58:50 10° NW visible
14 Apr 5.7 20:17:11 10° WSW 20:18:58 12° W 20:20:47 10° WNW visible
16 Apr 4.1 19:24:35 10° SSW 19:28:44 40° W 19:32:56 10° NNW visible
17 Apr 5.1 19:48:40 10° SSW 19:52:11 23° W 19:55:44 10° NW visible
18 Apr 5.6 20:13:33 10° WSW 20:15:43 13° W 20:17:54 10° WNW visible
20 Apr 3.9 19:21:18 10° S 19:25:30 43° W 19:29:45 10° NNW visible
21 Apr 4.9 19:45:17 10° SSW 19:48:56 25° W 19:52:37 10° NW visible
22 Apr 5.5 20:09:59 10° SW 20:12:28 15° W 20:14:57 10° WNW visible
